When you browse on this site, cookies collect data to enhance your experience and personalize the content and advertising you see.
Visit our Privacy Policy to learn more. By continuing to use the site, you agree to this use of cookies and data.
  • In Portugal
  • List of Countries
  • For 7 days
  • Water Temperature
  • Weather Map
  • Weather Widgets
  • user-avatar
    Login

    Hourly Weather Kalgoorlie

    Today, 22 November, Friday

    Time Temperature Precipitation Wind Pressure Humidity
    00:00 +17°C° 0 mm 2 mps 730 mmHg 20%
    01:00 +17°C° 0 mm 3 mps 730 mmHg 21%
    02:00 +15°C° 0 mm 4 mps 730 mmHg 21%
    03:00 +14°C° 0 mm 3 mps 730 mmHg 25%
    04:00 +14°C° 0 mm 3 mps 730 mmHg 29%
    05:00 +13°C° 0 mm 3 mps 730 mmHg 33%
    06:00 +17°C° 0 mm 3 mps 731 mmHg 29%
    07:00 +19°C° 0 mm 3 mps 731 mmHg 26%
    08:00 +22°C° 0 mm 3 mps 731 mmHg 26%
    09:00 +25°C° 0 mm 2 mps 731 mmHg 21%
    10:00 +28°C° 0 mm 1 mps 731 mmHg 17%
    11:00 +30°C° 0 mm 1 mps 731 mmHg 13%
    12:00 +31°C° 0 mm 1 mps 731 mmHg 11%
    13:00 +32°C° 0 mm 2 mps 730 mmHg 10%
    14:00 +34°C° 0 mm 3 mps 729 mmHg 9%
    15:00 +34°C° 0 mm 4 mps 729 mmHg 9%
    16:00 +33°C° 0 mm 5 mps 729 mmHg 10%
    17:00 +33°C° 0 mm 7 mps 730 mmHg 10%
    18:00 +29°C° 0 mm 7 mps 730 mmHg 13%
    19:00 +27°C° 0 mm 7 mps 730 mmHg 16%
    20:00 +24°C° 0 mm 7 mps 730 mmHg 19%
    21:00 +22°C° 0 mm 8 mps 730 mmHg 27%
    22:00 +20°C° 0 mm 8 mps 731 mmHg 36%
    23:00 +18°C° 0 mm 9 mps 731 mmHg 45%

    Tomorrow, 23 November, Saturday

    Time Temperature Precipitation Wind Pressure Humidity
    00:00 +17°C° 0 mm 9 mps 731 mmHg 51%
    01:00 +15°C° 0 mm 8 mps 731 mmHg 56%
    02:00 +13°C° 0 mm 8 mps 731 mmHg 62%
    03:00 +14°C° 0 mm 7 mps 731 mmHg 65%
    04:00 +12°C° 0 mm 7 mps 732 mmHg 68%
    05:00 +13°C° 0 mm 6 mps 732 mmHg 72%
    06:00 +16°C° 0 mm 7 mps 732 mmHg 60%
    07:00 +18°C° 0 mm 8 mps 732 mmHg 49%
    08:00 +22°C° 0 mm 9 mps 732 mmHg 38%
    09:00 +26°C° 0 mm 9 mps 732 mmHg 31%
    10:00 +28°C° 0 mm 8 mps 732 mmHg 25%
    11:00 +32°C° 0 mm 8 mps 731 mmHg 18%
    12:00 +33°C° 0 mm 7 mps 730 mmHg 17%
    13:00 +34°C° 0 mm 6 mps 729 mmHg 15%
    14:00 +36°C° 0 mm 5 mps 729 mmHg 14%
    15:00 +36°C° 0 mm 4 mps 728 mmHg 14%
    16:00 +36°C° 0 mm 3 mps 728 mmHg 14%
    17:00 +36°C° 0 mm 2 mps 727 mmHg 13%
    18:00 +34°C° 0 mm 3 mps 727 mmHg 15%
    19:00 +30°C° 0 mm 3 mps 727 mmHg 17%
    20:00 +28°C° 0 mm 4 mps 727 mmHg 19%
    21:00 +27°C° 0 mm 5 mps 728 mmHg 21%
    22:00 +26°C° 0 mm 6 mps 728 mmHg 22%
    23:00 +24°C° 0 mm 6 mps 728 mmHg 23%

    Day after tomorrow, 24 November, Sunday

    Time Temperature Precipitation Wind Pressure Humidity
    00:00 +22°C° 0 mm 6 mps 727 mmHg 34%
    01:00 +21°C° 0 mm 6 mps 727 mmHg 44%
    02:00 +19°C° 0 mm 5 mps 726 mmHg 54%
    03:00 +17°C° 0 mm 5 mps 726 mmHg 57%
    04:00 +16°C° 0 mm 5 mps 726 mmHg 60%
    05:00 +15°C° 0 mm 4 mps 727 mmHg 63%
    06:00 +19°C° 0 mm 4 mps 727 mmHg 54%
    07:00 +21°C° 0 mm 4 mps 727 mmHg 45%
    08:00 +25°C° 0 mm 4 mps 727 mmHg 36%
    09:00 +28°C° 0 mm 3 mps 726 mmHg 30%
    10:00 +31°C° 0 mm 3 mps 726 mmHg 25%
    11:00 +35°C° 0 mm 2 mps 726 mmHg 19%
    12:00 +36°C° 0 mm 2 mps 725 mmHg 16%
    13:00 +37°C° 0 mm 3 mps 724 mmHg 13%
    14:00 +39°C° 0 mm 3 mps 724 mmHg 10%
    15:00 +40°C° 0 mm 4 mps 724 mmHg 10%
    16:00 +40°C° 0 mm 5 mps 723 mmHg 10%
    17:00 +40°C° 0 mm 7 mps 723 mmHg 9%
    18:00 +34°C° 0 mm 9 mps 724 mmHg 22%
    19:00 +29°C° 0 mm 11 mps 724 mmHg 36%
    20:00 +23°C° 0 mm 13 mps 725 mmHg 49%
    21:00 +22°C° 0 mm 12 mps 726 mmHg 51%
    22:00 +19°C° 0 mm 11 mps 727 mmHg 53%
    23:00 +18°C° 0 mm 10 mps 728 mmHg 56%

    25 November, Monday

    Time Temperature Precipitation Wind Pressure Humidity
    00:00 +17°C° 0 mm 8 mps 728 mmHg 56%
    01:00 +16°C° 0 mm 7 mps 727 mmHg 56%
    02:00 +15°C° 0 mm 6 mps 727 mmHg 56%
    03:00 +15°C° 0 mm 7 mps 727 mmHg 58%
    04:00 +13°C° 0 mm 8 mps 728 mmHg 59%
    05:00 +12°C° 0 mm 9 mps 728 mmHg 60%
    06:00 +15°C° 0 mm 8 mps 728 mmHg 57%
    07:00 +17°C° 0 mm 8 mps 729 mmHg 53%
    08:00 +20°C° 0 mm 8 mps 729 mmHg 50%
    09:00 +23°C° 0 mm 8 mps 729 mmHg 43%
    10:00 +26°C° 0 mm 7 mps 729 mmHg 36%
    11:00 +29°C° 0 mm 7 mps 729 mmHg 29%
    12:00 +30°C° 0 mm 6 mps 728 mmHg 26%
    13:00 +32°C° 0 mm 6 mps 728 mmHg 24%
    14:00 +33°C° 0 mm 5 mps 727 mmHg 22%
    15:00 +33°C° 0 mm 6 mps 727 mmHg 20%
    16:00 +34°C° 0 mm 6 mps 727 mmHg 19%
    17:00 +34°C° 0 mm 6 mps 727 mmHg 18%
    18:00 +29°C° 0 mm 8 mps 728 mmHg 23%
    19:00 +26°C° 0 mm 10 mps 728 mmHg 28%
    20:00 +22°C° 0 mm 12 mps 729 mmHg 34%
    21:00 +18°C° 0 mm 11 mps 729 mmHg 42%
    22:00 +16°C° 0 mm 11 mps 729 mmHg 51%
    23:00 +12°C° 0 mm 10 mps 730 mmHg 60%

    26 November, Tuesday

    Time Temperature Precipitation Wind Pressure Humidity
    00:00 +11°C° 0 mm 9 mps 730 mmHg 64%
    01:00 +11°C° 0 mm 7 mps 730 mmHg 68%
    02:00 +10°C° 0 mm 6 mps 730 mmHg 72%
    03:00 +9°C° 0 mm 6 mps 730 mmHg 76%
    04:00 +9°C° 0 mm 5 mps 730 mmHg 79%
    05:00 +8°C° 0 mm 5 mps 731 mmHg 82%
    06:00 +12°C° 0 mm 5 mps 731 mmHg 68%
    07:00 +15°C° 0 mm 6 mps 731 mmHg 53%
    08:00 +17°C° 0 mm 6 mps 731 mmHg 38%
    09:00 +22°C° 0 mm 6 mps 730 mmHg 30%
    10:00 +26°C° 0 mm 6 mps 730 mmHg 22%
    11:00 +30°C° 0 mm 6 mps 730 mmHg 14%
    12:00 +32°C° 0 mm 5 mps 729 mmHg 13%
    13:00 +33°C° 0 mm 5 mps 728 mmHg 12%
    14:00 +34°C° 0 mm 4 mps 727 mmHg 11%
    15:00 +34°C° 0 mm 4 mps 727 mmHg 11%
    16:00 +34°C° 0 mm 4 mps 726 mmHg 12%
    17:00 +34°C° 0 mm 4 mps 726 mmHg 12%
    18:00 +32°C° 0 mm 4 mps 726 mmHg 15%
    19:00 +29°C° 0 mm 4 mps 726 mmHg 18%
    20:00 +26°C° 0 mm 4 mps 726 mmHg 21%
    21:00 +25°C° 0 mm 5 mps 726 mmHg 23%
    22:00 +25°C° 0 mm 5 mps 726 mmHg 25%
    23:00 +23°C° 0 mm 5 mps 727 mmHg 26%

    27 November, Wednesday

    Time Temperature Precipitation Wind Pressure Humidity
    00:00 +22°C° 0 mm 5 mps 726 mmHg 28%
    01:00 +21°C° 0 mm 4 mps 726 mmHg 30%
    02:00 +20°C° 0 mm 4 mps 726 mmHg 32%
    03:00 +19°C° 0.1 mm 4 mps 726 mmHg 37%
    04:00 +18°C° 0.1 mm 4 mps 726 mmHg 42%
    05:00 +18°C° 0.1 mm 4 mps 726 mmHg 46%
    06:00 +21°C° 0.1 mm 4 mps 726 mmHg 41%
    07:00 +25°C° 0.1 mm 5 mps 727 mmHg 35%
    08:00 +29°C° 0.1 mm 6 mps 727 mmHg 29%
    09:00 +32°C° 0 mm 5 mps 726 mmHg 27%
    10:00 +33°C° 0 mm 4 mps 726 mmHg 24%
    11:00 +35°C° 0 mm 4 mps 725 mmHg 22%
    12:00 +36°C° 0 mm 3 mps 724 mmHg 21%
    13:00 +36°C° 0 mm 2 mps 724 mmHg 20%
    14:00 +37°C° 0 mm 2 mps 723 mmHg 19%
    15:00 +36°C° 0.1 mm 4 mps 723 mmHg 22%
    16:00 +34°C° 0.1 mm 7 mps 723 mmHg 24%
    17:00 +33°C° 0.1 mm 10 mps 723 mmHg 27%
    18:00 +29°C° 0.2 mm 11 mps 724 mmHg 35%
    19:00 +26°C° 0.2 mm 13 mps 725 mmHg 42%
    20:00 +23°C° 0.2 mm 15 mps 726 mmHg 50%
    21:00 +20°C° 0.3 mm 13 mps 727 mmHg 54%
    22:00 +18°C° 0.3 mm 12 mps 727 mmHg 58%
    23:00 +17°C° 0.3 mm 11 mps 727 mmHg 62%
    Show more